| time (UTC) | temp F | wind direction | speed MPH | gust MPH | rain 1hr in | rain 24hr in | rain mn in | humidity % | barometer mb |
| 20260506014509 | 65 | 84 | 1.0 | 6.0 | 0.00 | 0.00 | 0.00 | 63 | 1011.1 |
| 20260506013007 | 65 | 57 | 1.0 | 6.0 | 0.00 | 0.00 | 0.00 | 62 | 1010.9 |
| 20260506011504 | 66 | 283 | 3.0 | 5.0 | 0.00 | 0.00 | 0.00 | 62 | 1010.8 |
| 20260506010007 | 66 | 198 | 1.0 | 3.0 | 0.00 | 0.00 | 0.00 | 60 | 1010.6 |
| 20260506004513 | 68 | 127 | 1.0 | 4.0 | 0.00 | 0.00 | 0.00 | 58 | 1010.5 |
| 20260506003008 | 69 | 249 | 3.0 | 7.0 | 0.00 | 0.00 | 0.00 | 57 | 1010.6 |
| 20260506001506 | 71 | 272 | 4.0 | 8.0 | 0.00 | 0.00 | 0.00 | 57 | 1010.4 |
| 20260506000016 | 71 | 233 | 1.0 | 5.0 | 0.00 | 0.00 | 0.00 | 56 | 1010.4 |
| 20260505234513 | 74 | 275 | 0.0 | 5.0 | 0.00 | 0.00 | 0.00 | 50 | 1010.2 |
| 20260505233008 | 75 | 264 | 3.0 | 8.0 | 0.00 | 0.01 | 0.00 | 46 | 1010.3 |
| 20260505231503 | 75 | 255 | 4.0 | 6.0 | 0.00 | 0.01 | 0.00 | 41 | 1010.4 |
| 20260505230003 | 74 | 285 | 5.0 | 8.0 | 0.00 | 0.01 | 0.00 | 42 | 1010.4 |
| 20260505224512 | 74 | 285 | 2.0 | 5.0 | 0.00 | 0.02 | 0.00 | 47 | 1010.4 |
| 20260505223002 | 73 | 260 | 0.0 | 6.0 | 0.00 | 0.02 | 0.00 | 42 | 1010.6 |
| 20260505221503 | 72 | 269 | 3.0 | 7.0 | 0.00 | 0.02 | 0.00 | 51 | 1010.8 |
| 20260505220013 | 73 | 286 | 3.0 | 9.0 | 0.00 | 0.02 | 0.00 | 41 | 1010.8 |
| 20260505214509 | 73 | 259 | 2.0 | 7.0 | 0.00 | 0.02 | 0.00 | 44 | 1010.9 |
| 20260505213006 | 73 | 288 | 3.0 | 6.0 | 0.00 | 0.02 | 0.00 | 44 | 1010.9 |
| 20260505211502 | 72 | 243 | 2.0 | 4.0 | 0.00 | 0.02 | 0.00 | 42 | 1011.0 |
| 20260505210006 | 71 | 248 | 3.0 | 8.0 | 0.00 | 0.02 | 0.00 | 46 | 1011.1 |
| 20260505204505 | 70 | 255 | 2.0 | 7.0 | 0.00 | 0.02 | 0.00 | 47 | 1011.2 |
| 20260505203005 | 69 | 288 | 4.0 | 6.0 | 0.00 | 0.02 | 0.00 | 53 | 1011.4 |
| 20260505201506 | 69 | 267 | 2.0 | 7.0 | 0.00 | 0.02 | 0.00 | 52 | 1011.5 |
| 20260505200010 | 67 | 257 | 2.0 | 6.0 | 0.00 | 0.02 | 0.00 | 52 | 1011.7 |
| 20260505194516 | 67 | 249 | 3.0 | 5.0 | 0.00 | 0.02 | 0.00 | 56 | 1012.1 |
| 20260505193003 | 66 | 291 | 1.0 | 6.0 | 0.00 | 0.02 | 0.00 | 56 | 1012.2 |
| 20260505191506 | 65 | 259 | 1.0 | 5.0 | 0.00 | 0.02 | 0.00 | 60 | 1012.4 |
| 20260505190022 | 64 | 253 | 3.0 | 5.0 | 0.00 | 0.02 | 0.00 | 61 | 1012.4 |
| 20260505184511 | 63 | 264 | 1.0 | 6.0 | 0.00 | 0.02 | 0.00 | 59 | 1012.5 |
| 20260505183005 | 62 | 248 | 2.0 | 6.0 | 0.00 | 0.02 | 0.00 | 63 | 1012.8 |
| 20260505181502 | 61 | 248 | 3.0 | 5.0 | 0.00 | 0.02 | 0.00 | 62 | 1012.8 |
| 20260505180005 | 61 | 195 | 2.0 | 5.0 | 0.00 | 0.02 | 0.00 | 62 | 1012.9 |
| 20260505174529 | 60 | 281 | 0.0 | 5.0 | 0.00 | 0.02 | 0.00 | 63 | 1012.9 |
| 20260505173016 | 59 | 307 | 4.0 | 6.0 | 0.00 | 0.02 | 0.00 | 65 | 1012.8 |
| 20260505171506 | 58 | 285 | 3.0 | 5.0 | 0.00 | 0.02 | 0.00 | 70 | 1012.9 |
| 20260505170005 | 57 | 266 | 3.0 | 5.0 | 0.00 | 0.02 | 0.00 | 67 | 1013.1 |
| 20260505164509 | 56 | 300 | 0.0 | 2.0 | 0.00 | 0.02 | 0.00 | 70 | 1013.1 |
| 20260505163010 | 53 | 275 | 1.0 | 3.0 | 0.00 | 0.02 | 0.00 | 73 | 1013.2 |
| 20260505161516 | 52 | 266 | 0.0 | 2.0 | 0.00 | 0.02 | 0.00 | 75 | 1013.2 |
| 20260505153008 | 51 | 254 | 0.0 | 0.0 | 0.00 | 0.02 | 0.00 | 75 | 1013.1 |
| 20260505151511 | 51 | 255 | 0.0 | 0.0 | 0.00 | 0.02 | 0.00 | 76 | 1013.0 |
| 20260505124503 | 47 | 135 | 0.0 | 0.0 | 0.00 | 0.02 | 0.00 | 83 | 1012.2 |
| 20260505123004 | 47 | 135 | 0.0 | 0.0 | 0.00 | 0.02 | 0.00 | 83 | 1012.2 |
| 20260505121505 | 47 | 135 | 0.0 | 1.0 | 0.00 | 0.02 | 0.00 | 81 | 1012.2 |
| 20260505120008 | 47 | 107 | 0.0 | 0.0 | 0.00 | 0.02 | 0.00 | 82 | 1012.2 |
| 20260505111509 | 47 | 127 | 0.0 | 0.0 | 0.00 | 0.02 | 0.00 | 83 | 1012.3 |
| 20260505101520 | 47 | 162 | 0.0 | 3.0 | 0.00 | 0.02 | 0.00 | 81 | 1012.3 |
| 20260505100004 | 47 | 81 | 0.0 | 0.0 | 0.00 | 0.02 | 0.00 | 82 | 1012.3 |
| 20260505094504 | 47 | 88 | 0.0 | 0.0 | 0.00 | 0.02 | 0.00 | 82 | 1012.3 |
| 20260505093011 | 47 | 125 | 0.0 | 0.0 | 0.00 | 0.02 | 0.00 | 82 | 1012.5 |
| 20260505091513 | 47 | 270 | 0.0 | 0.0 | 0.00 | 0.02 | 0.00 | 83 | 1012.5 |
| 20260505090037 | 47 | 287 | 0.0 | 0.0 | 0.00 | 0.02 | 0.00 | 84 | 1012.6 |
| 20260505084503 | 48 | 4 | 0.0 | 0.0 | 0.00 | 0.02 | 0.00 | 82 | 1012.6 |
| 20260505083011 | 48 | 4 | 0.0 | 0.0 | 0.00 | 0.02 | 0.00 | 82 | 1012.7 |
| 20260505081512 | 47 | 271 | 0.0 | 1.0 | 0.00 | 0.02 | 0.00 | 81 | 1012.6 |
| 20260505080029 | 48 | 236 | 0.0 | 0.0 | 0.00 | 0.02 | 0.00 | 82 | 1012.7 |
| 20260505074502 | 48 | 236 | 0.0 | 1.0 | 0.00 | 0.02 | 0.00 | 81 | 1012.8 |
| 20260505073007 | 48 | 262 | 0.0 | 7.0 | 0.00 | 0.02 | 0.00 | 79 | 1012.8 |
| 20260505071509 | 48 | 263 | 0.0 | 6.0 | 0.00 | 0.02 | 0.00 | 79 | 1012.9 |
| 20260505070003 | 48 | 274 | 1.0 | 5.0 | 0.00 | 0.02 | 0.00 | 80 | 1012.8 |
| 20260505064504 | 48 | 238 | 1.0 | 4.0 | 0.00 | 0.02 | 0.02 | 81 | 1012.9 |
| 20260505063005 | 48 | 143 | 0.0 | 1.0 | 0.00 | 0.02 | 0.02 | 81 | 1013.2 |
| 20260505061510 | 49 | 244 | 2.0 | 4.0 | 0.00 | 0.02 | 0.02 | 78 | 1013.2 |
| 20260505060014 | 49 | 295 | 0.0 | 1.0 | 0.00 | 0.02 | 0.02 | 77 | 1013.4 |
| 20260505054503 | 49 | 251 | 0.0 | 4.0 | 0.00 | 0.02 | 0.02 | 76 | 1013.1 |
| 20260505053007 | 50 | 272 | 0.0 | 5.0 | 0.00 | 0.02 | 0.02 | 75 | 1013.2 |
| 20260505051504 | 50 | 295 | 2.0 | 5.0 | 0.00 | 0.02 | 0.02 | 75 | 1013.2 |
| 20260505041503 | 50 | 6 | 0.0 | 0.0 | 0.00 | 0.02 | 0.02 | 76 | 1012.5 |
| 20260505040004 | 50 | 68 | 0.0 | 0.0 | 0.00 | 0.02 | 0.02 | 75 | 1012.5 |
| 20260505034510 | 51 | 345 | 0.0 | 1.0 | 0.00 | 0.02 | 0.02 | 75 | 1012.3 |
| 20260505033014 | 51 | 312 | 0.0 | 1.0 | 0.00 | 0.02 | 0.02 | 74 | 1012.2 |
| 20260505031518 | 51 | 97 | 0.0 | 1.0 | 0.00 | 0.02 | 0.02 | 74 | 1012.2 |
| 20260505030004 | 51 | 334 | 1.0 | 4.0 | 0.00 | 0.02 | 0.02 | 73 | 1012.1 |
| 20260505024503 | 51 | 297 | 2.0 | 8.0 | 0.00 | 0.02 | 0.02 | 74 | 1011.9 |
| 20260505023008 | 52 | 253 | 1.0 | 8.0 | 0.00 | 0.02 | 0.02 | 74 | 1011.8 |
| 20260505021512 | 52 | 224 | 4.0 | 11.0 | 0.00 | 0.02 | 0.02 | 74 | 1011.2 |
| 20260505020020 | 53 | 256 | 2.0 | 12.0 | 0.00 | 0.02 | 0.02 | 75 | 1011.1 |